Tracking 35275 objects as of 8-Sep-2026
HD Live streaming from Space Station
objects crossing your sky now

SPACEBEENZ-15


SPACEBEENZ-15 is no longer on orbit


NORAD ID: 52395
Int'l Code: 2022-047B
Launch date: May 2, 2022
Source: New Zealand (NZ)
Launch site: Rocket Lab Launch Complex (RLLC)
Decay date: 2023-12-30
Your satellite tracking list
Your tracking list is empty




NASA's NSSDC Master Catalog

Two Line Element Set (TLE):
1 52395U 22047B   23362.79164912  .12387968  24983-5  10084-2 0  9994
2 52395  97.3729  93.6654 0011878 297.1092  62.8995 16.39642879 93940
Source of the keplerian elements: AFSPC